Plainview, TX

11:23 PM CDT on August 16, 2017 (GMT -0500)
Hale County

Weather History for KPVW - May, 2013

Change the Weather History Date:

Sunday, May 12, 2013

  Actual Average Record
Temperature  
Mean Temperature 60 °F -  
Max Temperature 78 °F 80 °F 98 °F (1961)
Min Temperature 43 °F 53 °F 35 °F (1960)
Degree Days  
Heating Degree Days 5    
Growing Degree Days 10 (Base 50)    
Moisture  
Dew Point 39 °F    
Average Humidity 47    
Maximum Humidity 87    
Minimum Humidity 19    
Precipitation  
Precipitation 0.00 in - - ()
Sea Level Pressure  
Sea Level Pressure 30.24 in    
Wind  
Wind Speed 7 mph (South)    
Max Wind Speed 16 mph    
Max Gust Speed 25 mph    
Visibility 10 miles    
Events      
Averages and records for this station are not official NWS values.
T = Trace of Precipitation, MM = Missing Value Source: NWS Daily Summary

Daily Weather History Graph

Daily Weather History Graph

Search for Another Location

Airport or City:

Trip Planner

Search our weather history database for the weather conditions in past years. The results will help you decide how hot, cold, wet, or windy it might be!

Date:

Astronomy

May. 12, 2013 Rise Set
Actual Time 6:47 AM CDT 8:39 PM CDT
Civil Twilight 6:19 AM CDT 9:07 PM CDT
Nautical Twilight 5:46 AM CDT 9:40 PM CDT
Astronomical Twilight 5:10 AM CDT 10:16 PM CDT
Moon 8:45 AM CDT (5/12) 11:07 PM CDT (5/12)
Length of Visible Light 14h 47m
Length of Day
13h 52m
Waxing Crescent, 7% of the Moon is Illuminated
May 12
Waxing Crescent
May 17
First Quarter
May 24
Full
May 31
Last Quarter
Jun 8
New

Hourly Weather History & Observations

Time (CDT) Temp. Dew Point Humidity Pressure Visibility Wind Dir Wind Speed Gust Speed Precip Events Conditions
12:15 AM 54.9 °F 44.2 °F 67% 30.31 in 10.0 mi East 6.9 mph - N/A   Clear
12:35 AM 54.9 °F 44.2 °F 67% 30.31 in 10.0 mi East 5.8 mph - N/A   Clear
12:55 AM 53.8 °F 44.2 °F 70% 30.31 in 10.0 mi East 6.9 mph - N/A   Clear
1:15 AM 54.9 °F 46.0 °F 72% 30.31 in 10.0 mi East 6.9 mph - N/A   Clear
1:35 AM 52.3 °F 44.6 °F 75% 30.31 in 10.0 mi East 6.9 mph - N/A   Clear
1:55 AM 52.0 °F 44.8 °F 76% 30.31 in 10.0 mi East 6.9 mph - N/A   Clear
2:15 AM 54.9 °F 47.3 °F 76% 30.30 in 10.0 mi ESE 6.9 mph - N/A   Clear
2:35 AM 52.0 °F 45.5 °F 79% 30.30 in 10.0 mi East 6.9 mph - N/A   Clear
2:55 AM 50.0 °F 44.1 °F 80% 30.30 in 10.0 mi East 5.8 mph - N/A   Clear
3:15 AM 50.0 °F 44.1 °F 80% 30.30 in 10.0 mi ESE 5.8 mph - N/A   Clear
3:35 AM 50.0 °F 43.9 °F 79% 30.30 in 10.0 mi ESE 4.6 mph - N/A   Clear
3:55 AM 50.0 °F 44.1 °F 80% 30.29 in 10.0 mi ESE 4.6 mph - N/A   Clear
4:35 AM 50.0 °F 42.8 °F 76% 30.30 in 10.0 mi ESE 5.8 mph - N/A   Clear
4:55 AM 50.0 °F 42.6 °F 76% 30.30 in 10.0 mi ESE 3.5 mph - N/A   Clear
5:15 AM 50.0 °F 43.0 °F 77% 30.30 in 10.0 mi East 3.5 mph - N/A   Clear
5:35 AM 47.8 °F 41.7 °F 79% 30.29 in 10.0 mi Calm Calm - N/A   Clear
5:55 AM 45.9 °F 40.5 °F 81% 30.29 in 10.0 mi Calm Calm - N/A   Clear
6:15 AM 44.8 °F 39.6 °F 82% 30.29 in 10.0 mi Calm Calm - N/A   Clear
6:35 AM 44.4 °F 39.9 °F 84% 30.29 in 10.0 mi Calm Calm - N/A   Clear
6:55 AM 47.3 °F 42.3 °F 83% 30.29 in 10.0 mi Calm Calm - N/A   Clear
7:15 AM 44.8 °F 40.3 °F 84% 30.30 in 10.0 mi Calm Calm - N/A   Clear
7:35 AM 43.5 °F 39.7 °F 87% 30.30 in 10.0 mi Calm Calm - N/A   Clear
7:55 AM 50.0 °F 44.2 °F 81% 30.30 in 10.0 mi Calm Calm - N/A   Clear
8:15 AM 52.3 °F 42.1 °F 68% 30.30 in 10.0 mi SE 6.9 mph - N/A   Clear
8:35 AM 54.9 °F 41.7 °F 61% 30.30 in 10.0 mi SE 9.2 mph - N/A   Clear
8:55 AM 56.7 °F 41.4 °F 57% 30.30 in 10.0 mi SSE 10.4 mph - N/A   Clear
9:15 AM 57.6 °F 41.0 °F 54% 30.30 in 10.0 mi SSE 11.5 mph - N/A   Clear
9:35 AM 59.9 °F 43.0 °F 54% 30.30 in 10.0 mi SSE 11.5 mph - N/A   Clear
9:55 AM 60.1 °F 43.9 °F 55% 30.30 in 10.0 mi South 12.7 mph - N/A   Clear
10:15 AM 62.6 °F 44.1 °F 51% 30.29 in 10.0 mi South 13.8 mph - N/A   Clear
10:35 AM 63.5 °F 43.3 °F 48% 30.29 in 10.0 mi South 15.0 mph - N/A   Clear
10:55 AM 65.7 °F 43.9 °F 45% 30.28 in 10.0 mi South 12.7 mph - N/A   Clear
11:15 AM 69.8 °F 45.1 °F 41% 30.28 in 10.0 mi SSW 13.8 mph 18.4 mph N/A   Clear
11:35 AM 70.0 °F 42.6 °F 37% 30.28 in 10.0 mi SSW 13.8 mph 18.4 mph N/A   Clear
11:55 AM 70.0 °F 41.2 °F 35% 30.28 in 10.0 mi SSW 13.8 mph 19.6 mph N/A   Clear
12:15 PM 70.0 °F 40.6 °F 34% 30.27 in 10.0 mi SW 11.5 mph 18.4 mph N/A   Clear
12:35 PM 72.5 °F 42.3 °F 34% 30.27 in 10.0 mi WSW 9.2 mph 17.3 mph N/A   Clear
12:55 PM 73.8 °F 41.5 °F 31% 30.27 in 10.0 mi SW 11.5 mph - N/A   Clear
1:15 PM 74.3 °F 40.8 °F 30% 30.25 in 10.0 mi SW 9.2 mph 17.3 mph N/A   Clear
1:35 PM 75.2 °F 39.6 °F 28% 30.24 in 10.0 mi SW 3.5 mph 16.1 mph N/A   Clear
1:55 PM 75.2 °F 37.4 °F 25% 30.24 in 10.0 mi SSW 9.2 mph 18.4 mph N/A   Clear
2:15 PM 75.2 °F 36.9 °F 25% 30.22 in 10.0 mi SSW 10.4 mph 17.3 mph N/A   Scattered Clouds
2:35 PM 75.7 °F 38.1 °F 26% 30.22 in 10.0 mi WSW 8.1 mph 17.3 mph N/A   Scattered Clouds
2:55 PM 75.4 °F 36.9 °F 25% 30.21 in 10.0 mi SW 12.7 mph 17.3 mph N/A   Scattered Clouds
3:15 PM 77.5 °F 38.8 °F 25% 30.20 in 10.0 mi SW 9.2 mph 25.3 mph N/A   Scattered Clouds
3:35 PM 77.5 °F 37.9 °F 24% 30.19 in 10.0 mi SW 9.2 mph - N/A   Clear
3:55 PM 77.5 °F 37.4 °F 24% 30.19 in 10.0 mi SW 16.1 mph - N/A   Scattered Clouds
4:15 PM 77.5 °F 36.1 °F 22% 30.18 in 10.0 mi SSW 9.2 mph 19.6 mph N/A   Clear
4:35 PM 77.7 °F 34.9 °F 21% 30.18 in 10.0 mi WSW 8.1 mph 18.4 mph N/A   Scattered Clouds
4:55 PM 77.5 °F 34.0 °F 21% 30.17 in 10.0 mi SW 11.5 mph - N/A   Scattered Clouds
5:15 PM 77.5 °F 33.6 °F 20% 30.15 in 10.0 mi South 11.5 mph 16.1 mph N/A   Scattered Clouds
5:35 PM 77.5 °F 33.8 °F 20% 30.15 in 10.0 mi SW 10.4 mph - N/A   Scattered Clouds
5:55 PM 77.5 °F 33.3 °F 20% 30.15 in 10.0 mi SSW 4.6 mph - N/A   Scattered Clouds
6:15 PM 77.5 °F 32.7 °F 20% 30.15 in 10.0 mi West 11.5 mph 18.4 mph N/A   Clear
6:35 PM 77.5 °F 33.1 °F 20% 30.14 in 10.0 mi West 9.2 mph - N/A   Clear
6:55 PM 77.5 °F 32.5 °F 19% 30.13 in 10.0 mi SSW 5.8 mph - N/A   Clear
7:15 PM 77.5 °F 32.2 °F 19% 30.13 in 10.0 mi WSW 10.4 mph - N/A   Clear
7:35 PM 76.6 °F 32.2 °F 20% 30.13 in 10.0 mi SSW 9.2 mph - N/A   Clear
7:55 PM 75.2 °F 31.5 °F 20% 30.13 in 10.0 mi SW 9.2 mph - N/A   Clear
8:15 PM 75.2 °F 32.4 °F 21% 30.13 in 10.0 mi SSW 6.9 mph - N/A   Clear
8:35 PM 71.8 °F 32.2 °F 23% 30.13 in 10.0 mi SSW 6.9 mph - N/A   Clear
8:55 PM 70.0 °F 33.8 °F 26% 30.13 in 10.0 mi SSW 8.1 mph - N/A   Clear
9:15 PM 70.0 °F 34.2 °F 27% 30.14 in 10.0 mi SSW 10.4 mph - N/A   Clear
9:35 PM 67.5 °F 33.8 °F 29% 30.15 in 10.0 mi SSW 8.1 mph - N/A   Clear
9:55 PM 64.9 °F 32.9 °F 30% 30.16 in 10.0 mi SSW 8.1 mph - N/A   Clear
10:15 PM 63.0 °F 32.0 °F 31% 30.16 in 10.0 mi SSW 6.9 mph - N/A   Clear
10:35 PM 62.6 °F 32.4 °F 32% 30.17 in 10.0 mi SSW 8.1 mph - N/A   Clear
10:55 PM 60.6 °F 32.9 °F 35% 30.17 in 10.0 mi SSW 9.2 mph - N/A   Clear
11:15 PM 60.8 °F 32.9 °F 35% 30.18 in 10.0 mi SSW 8.1 mph - N/A   Clear
11:35 PM 59.9 °F 33.4 °F 37% 30.18 in 10.0 mi SSW 8.1 mph - N/A   Clear
11:55 PM 59.9 °F 33.8 °F 38% 30.17 in 10.0 mi SSW 10.4 mph - N/A   Clear